Simultaneous Nadir Overpasses (SNOs) Predictions

Prediction of SNOs between AQUA and NPP Satellite Orbit:

Table of predicted SNOs for the next 14.0 days since TLE Epoch: 12/13/2014
Index Date (AQUA) Time (AQUA) Lat,Lon (AQUA) SZA (AQUA ) Date (NPP) Time (NPP) Lat,Lon (NPP) SZA (NPP ) Distance(km) Time Diff (sec)
1 12/13/2014 00:44:38 46.02, 21.34 144.36 12/13/2014 00:43:32 46.02, 21.37 144.52 1.70 66
2 12/13/2014 01:30:45 -57.94,-165.49 44.37 12/13/2014 01:30:51 -57.94,-165.49 44.38 0.06 6
3 12/13/2014 02:13:30 79.28, 39.97 115.52 12/13/2014 02:14:43 79.04, 41.17 115.28 36.85 73
4 12/15/2014 17:00:02 49.93, 138.77 141.99 12/15/2014 16:59:16 49.93, 138.76 142.10 0.46 46
5 12/15/2014 17:46:17 -61.29, -47.42 46.85 12/15/2014 17:46:43 -61.30, -47.40 46.90 1.02 26
6 12/18/2014 09:15:07 54.84,-103.07 138.59 12/18/2014 09:14:41 54.84,-103.06 138.63 0.53 26
7 12/18/2014 10:01:59 -63.94, 70.54 48.88 12/18/2014 10:02:46 -63.95, 70.57 48.96 1.52 47
8 12/21/2014 01:30:26 58.90, 15.12 135.54 12/21/2014 01:30:21 58.90, 15.14 135.53 1.47 5
9 12/21/2014 02:17:53 -65.90,-171.79 50.43 12/21/2014 02:19:02 -65.90,-171.76 50.54 1.22 69
10 12/23/2014 16:59:39 -51.32, -40.62 38.39 12/23/2014 16:58:43 -51.33, -40.61 38.27 0.86 56
11 12/23/2014 17:46:23 60.67, 132.18 134.19 12/23/2014 17:46:41 60.67, 132.14 134.17 1.74 18
12 12/23/2014 18:21:38 -65.51, 90.15 91.09 12/23/2014 18:22:50 -65.16, 88.28 91.49 95.49 72
13 12/26/2014 09:14:45 -56.06, 77.60
